Location: Carri�res
(48.9069°N, 2.1792°E)
Time: 20:27:25
(UTC+00:00)

Cosmos 1689 Rocket - Pass Details

Date: 17 January 2021
Orbit: 353 x 367 km, 97.5° (Epoch: 01 March)

Event Time Altitude Azimuth Distance (km) Brightness Sun altitude
Exits shadow 18:20:46 21° 166° (SSE) 885 3.8 -18.5°
Drops below altitude 10° 18:21:54 10° 176° (S) 1,336 4.9 -18.6°
Sets 18:23:51 0° 182° (S) 2,172 6.0 -18.9°
